Location: Eekwerd
(53.3234°N, 6.7984°E)
Time: 08:22:46
(UTC+00:00)

Cosmos 2360 Rocket - Pass Details

Date: 15 May 2026
Orbit: 831 x 845 km, 71.0° (Epoch: 6 June)

Event Time Altitude Azimuth Distance (km) Brightness Sun altitude
Rises 21:43:58 0° 324° (NW) 3,417 7.2 -14.2°
Reaches altitude 10° 21:46:35 10° 317° (NW) 2,478 5.8 -14.3°
Maximum altitude 21:51:44 37° 252° (WSW) 1,301 3.2 -14.6°
Enters shadow 21:55:44 16° 193° (SSW) 2,089 3.8 -14.9°
